Location: Newark
(37.0349°N, 76.3601°W)
Time: 00:15:23
(UTC+00:00)

N. Korean satellite - Visible Passes

Search period start: 28 January 2020 00:00
Search period end: 07 February 2020 00:00
Orbit: 454 x 507 km, 97.2° (Epoch: 27 January)

Date Brightness Start Highest point End Pass type
(mag) Time Alt. Az. Time Alt. Az. Time Alt. Az.
28 Jan 6.8 10:46:44 10° NNE 10:50:21 74° E 10:54:00 10° S visible
28 Jan 9.6 22:54:06 10° SW 22:56:41 20° W 22:59:19 10° NW visible
29 Jan 8.5 10:21:33 10° NNE 10:24:49 31° E 10:28:06 10° SSE visible
30 Jan 9.8 09:57:02 10° ENE 09:59:12 15° E 10:01:23 10° SE visible
30 Jan 7.5 11:29:27 10° NNW 11:32:35 28° WNW 11:35:45 10° SW visible
31 Jan 6.5 11:03:35 10° N 11:07:11 63° WNW 11:10:49 10° SSW visible
31 Jan 10.1 23:12:13 10° WSW 23:13:38 12° W 23:15:04 10° WNW visible
01 Feb 7.3 10:38:07 10° NNE 10:41:43 55° E 10:45:19 10° S visible
02 Feb 9.0 10:13:05 10° NE 10:16:09 25° E 10:19:13 10° SSE visible
03 Feb 10.1 09:49:04 10° ENE 09:50:30 12° E 09:51:56 10° ESE visible
03 Feb 7.2 11:20:36 10° N 11:23:59 36° WNW 11:27:23 10° SW visible
04 Feb 6.5 10:54:52 10° N 10:58:34 83° W 11:02:15 10° SSW visible
04 Feb 9.8 23:02:43 10° SW 23:04:53 16° W 23:07:04 10° NW visible
05 Feb 8.0 10:29:31 10° NNE 10:33:02 42° E 10:36:34 10° S visible
06 Feb 9.4 10:04:42 10° NE 10:07:26 20° E 10:10:11 10° SE visible
